< < Back
Terminal Aerodrome Forecast


Current Version              Previous Versions:   1  2  3  4  5  6  7  8  9  

Terminal Aerodrome Forecast

983
FTUS42 KTAE 301124
TAFDHN
TAF
KDHN 301124Z 3012/3112 21010KT P6SM BKN025
     FM301500 28013G23KT P6SM SCT025 BKN040
      TEMPO 3018/3022 VRB15G25KT 3SM TSRA BKN025CB
     FM310000 29004KT P6SM SCT250
     FM310600 28004KT 4SM BR OVC050=

Latest METAR

198
SAUS70 KWBC 310600 RRF
MTRDHN
METAR KDHN 310553Z 22007KT 10SM CLR 17/16 A3015 RMK AO2 SLP206 T01720161
10222 20172 402560106 58006


USA.gov is the U.S. government's official web portal to all federal, state and local government web resources and services.